Location: Ottawa
(45.4170°N, 75.7000°W)
Time: 21:18:03
(UTC-04:00)

Daily predictions for brighter satellites

Satellite Brightness Start Highest point End
(mag) Time Altitude Azimuth Time Altitude Azimuth Time Altitude Azimuth
Spot 1 4.3 21:11:13 10° S 21:15:36 75° WSW 21:19:48 10° NNW
Cosmos 1697 Rocket 3.6 21:11:27 10° NNW 21:16:35 35° NE 21:21:41 10° ESE
ASTEX 1 3.4 21:16:06 10° SSE 21:20:59 71° E 21:25:52 10° N
Cosmos 1666 4.1 21:20:17 10° NNW 21:23:47 39° W 21:27:17 10° SSW
Cosmos 2369 3.8 21:18:58 10° NNW 21:24:43 72° ENE 21:30:24 10° SSE
Meteor 1-15 Rocket 4.2 21:20:28 10° N 21:26:05 87° E 21:31:39 10° S
Cosmos 2154 Rocket 4.1 21:20:26 10° N 21:26:49 82° E 21:33:11 10° S
SL-16 R/B 4.4 21:24:45 10° N 21:27:28 13° NE 21:30:09 10° ENE
Meteor 1-29 2.9 21:24:36 10° NNE 21:27:59 85° WNW 21:31:20 10° SSW
Okean 2 3.3 21:24:53 10° S 21:28:56 72° E 21:33:02 10° NNE
MOS 1-B Rocket 4.3 21:26:34 10° SSE 21:32:24 62° ENE 21:39:09 10° N
Cosmos 967 Rocket 4.4 21:26:39 10° SSW 21:32:52 75° ESE 21:39:10 10° NE
Cosmos 1833 Rocket 3.3 21:28:38 10° S 21:33:42 36° ESE 21:38:47 10° NE
Cosmos 1892 Rocket 3.8 21:30:35 10° S 21:34:52 52° E 21:39:09 10° NNE
Tiangong 2 1.3 21:36:12 10° W 21:39:20 52° S 21:42:19 11° ESE
Cosmos 1606 Rocket 3.6 21:38:27 10° N 21:42:48 83° W 21:47:07 10° S
Cosmos 1025 Rocket 3.7 21:41:30 10° SSW 21:45:41 58° WNW 21:49:56 10° N
Okean 1-7 Rocket 4.5 21:41:38 10° SSW 21:46:00 53° WNW 21:50:28 10° N
NOSS 8 (E) 4.4 21:44:54 10° SSW 21:48:20 76° SE 21:52:10 10° NE
Cosmos 1726 Rocket 3.6 21:46:58 10° N 21:51:19 81° W 21:55:37 10° S
Cosmos 1437 Rocket 3.8 21:52:56 10° NNW 21:56:36 42° W 22:00:18 10° SSW
Cosmos 1066 Rocket 4.4 21:53:28 10° S 21:58:48 52° E 22:04:19 10° NNE
Cosmos 1515 3.8 21:55:05 10° SSW 21:58:53 78° W 22:02:43 10° N
ATLAS CENTAUR R/B 3.5 22:00:40 10° N 22:02:57 15° NE 22:05:11 10° ENE
Terra 3.1 21:59:51 14° ESE 22:03:07 28° ENE 22:07:07 10° N
Cosmos 2341 Rocket 4.3 21:58:01 10° NNW 22:04:21 73° W 22:10:42 10° S
Cosmos 1980 Rocket 2.7 22:00:52 10° NNW 22:06:23 50° ENE 22:10:36 17° SE
ARGOS 3.2 22:02:00 13° SSE 22:06:57 86° ENE 22:12:25 10° NNW
USA 245 1.8 22:08:25 26° SSE 22:09:33 85° ENE 22:11:48 10° NNW
H-2A R/B 2.2 22:06:48 17° SSE 22:10:36 59° ENE 22:15:38 10° N
Cosmos 2218 Rocket 4.0 22:04:50 10° N 22:11:00 69° E 22:16:06 16° SSE
Timation 2 Rocket 4.2 22:05:00 10° S 22:11:02 47° ESE 22:16:52 10° NE
SL-08 RB Rocket 3.6 22:10:08 16° SSE 22:13:37 81° ENE 22:18:08 10° N
Cosmos 2058 Rocket 3.4 22:09:29 10° NNW 22:13:54 64° W 22:18:01 12° S
SL-24 DEB 4.3 22:11:31 12° S 22:15:46 84° W 22:20:27 10° N
Cosmos 2322 Rocket 3.7 22:13:49 10° N 22:18:36 26° NE 22:22:56 12° ESE
SPOT 5 2.7 22:16:39 16° S 22:20:07 73° WSW 22:24:33 10° NNW
Cosmos 1420 Rocket 4.0 22:24:02 10° NNW 22:29:19 85° WSW 22:32:48 22° SSE
Cosmos 1953 3.9 22:26:36 10° NNE 22:29:54 23° ENE 22:31:28 18° ESE
Meteor 2-21 4.4 22:24:03 10° N 22:30:08 86° E 22:34:42 19° S
Cosmos 1269 Rocket 4.2 22:26:05 15° S 22:30:14 52° ESE 22:35:23 10° NNE
Meteor 1-4 Rocket 2.7 22:27:25 10° NNW 22:30:58 64° W 22:33:02 22° S
H-2A R/B 2.7 22:28:29 23° SE 22:30:58 45° ENE 22:35:17 10° N
Cosmos 1812 Rocket 3.7 22:26:56 10° N 22:31:24 61° E 22:33:49 25° SSE
Cosmos 1766 3.3 22:28:24 10° N 22:32:17 61° E 22:34:07 28° SSE
Lacrosse 5 3.3 22:32:56 19° ESE 22:32:56 19° ESE 22:35:58 10° ENE
CZ-3A R/B 0.3 22:30:45 10° WSW 22:33:02 45° NW 22:33:14 41° N
Orbus 7S? 4.4 22:25:13 10° NW 22:33:13 60° NNE 22:35:52 20° ESE
Cosmos 1048 Rocket 4.0 22:30:46 15° S 22:34:52 59° ESE 22:39:59 10° NNE
Meteor 2-21 Rocket 4.4 22:29:18 10° N 22:35:23 78° E 22:39:33 21° SSE
ISS -1.6 22:34:20 10° WNW 22:37:14 27° N 22:40:08 10° NE
Meteor 1-21 4.4 22:33:45 20° SSE 22:37:32 55° E 22:43:10 10° NNE
Cosmos 1626 Rocket 3.5 22:38:00 18° S 22:41:11 87° W 22:45:32 10° N
DMSP B5D2-2 4.1 22:35:58 10° NNE 22:41:13 61° E 22:44:39 21° S
NOSS 3-1 (C) 4.4 22:37:14 10° NNW 22:44:31 58° NE 22:50:49 18° ESE
Cosmos 2228 4.4 22:41:39 10° NNW 22:45:30 33° W 22:49:02 12° SSW
Cosmos 1452 Rocket 4.5 22:41:07 10° NW 22:46:03 41° WSW 22:49:50 16° SSW
Cosmos 2082 Rocket 2.8 22:41:07 10° SW 22:46:42 60° WNW 22:52:19 10° NNE
Cosmos 389 Rocket 3.5 22:44:56 10° N 22:48:03 30° ENE 22:48:48 27° E
Lacrosse 5 rocket 2.5 22:46:57 10° NW 22:51:25 44° NNE 22:54:38 17° E
Cosmos 1825 Rocket 4.0 22:53:56 33° SE 22:55:13 42° E 22:59:19 10° NNE
Cosmos 1805 3.2 22:55:32 10° N 22:59:26 68° E 23:00:38 41° SSE
Cosmos 1697 Rocket 3.6 22:55:24 10° NW 23:00:36 40° WSW 23:04:02 19° SSW
SPOT 1/Viking Rocket 4.4 22:59:04 18° SSW 23:02:36 43° W 23:07:31 10° NNW
SL-24 R/B - RUBIN 2 4.5 23:05:04 10° SSW 23:11:47 86° ESE 23:18:17 10° NE
Iridium 2 3.7 23:08:14 10° N 23:12:02 74° W 23:13:11 42° SSW
Cosmos-2242 4.1 23:08:29 10° N 23:12:20 31° ENE 23:13:25 27° ESE
USA 229 DEB 4.0 23:05:23 10° NW 23:12:24 61° WSW 23:16:22 28° S
USA 229 4.0 23:05:29 10° NW 23:12:30 61° WSW 23:16:28 28° S
PSLV R/B 2.8 23:12:34 86° WNW 23:12:34 86° WNW 23:15:21 10° NNW
SL-16 R/B 2.5 23:07:13 10° NNW 23:12:50 60° ENE 23:15:34 30° SE
Cosmos 2360 4.4 23:07:51 10° NNW 23:13:31 63° WSW 23:16:15 30° S
Cosmos 1758 3.2 23:09:55 10° N 23:13:56 78° E 23:14:57 48° SSE
CZ-4 R/B 3.9 23:09:57 10° NNE 23:14:59 68° ESE 23:17:05 35° S
Cosmos 2251 Rocket 4.1 23:14:09 33° SE 23:15:36 40° ESE 23:20:37 10° NE
Tiangong 2 2.9 23:13:00 10° W 23:14:31 21° WSW 23:14:31 21° WSW
Cosmos 1833 Rocket 4.1 23:12:21 10° WSW 23:17:35 38° NW 23:22:50 10° NNE
NOSS 3-1 (A) 4.2 23:11:41 10° NW 23:19:07 67° NE 23:24:36 23° SE
Cosmos 158 Rocket 4.4 23:15:00 12° SSW 23:19:55 63° WNW 23:25:18 10° NNE
Meteor 2-8 Rocket 4.4 23:18:11 29° S 23:21:31 79° E 23:27:41 10° NNE
Cosmos 1544 3.7 23:22:00 10° NNW 23:25:31 47° W 23:26:22 38° SW
Cosmos 1271 Rocket 3.8 23:23:36 10° NNW 23:27:16 38° W 23:28:35 29° SW
Cosmos 2098 Rocket 4.4 23:25:37 10° N 23:30:08 38° ENE 23:32:08 29° ESE
Cosmos 1842 4.1 23:28:44 28° SW 23:30:26 47° WNW 23:34:16 10° N
CZ-4B R/B 3.4 23:27:08 10° NNE 23:32:17 81° ESE 23:34:27 36° S
deb Chang Zheng 4 3.8 23:28:17 10° N 23:32:35 65° WNW 23:34:29 31° SW
Cosmos 1733 3.2 23:30:01 10° N 23:33:49 62° E 23:34:16 56° ESE
Cosmos 494 Rocket 3.9 23:36:46 41° S 23:38:28 70° ESE 23:43:38 10° NNE
SL-19 R/B 4.5 23:35:12 10° N 23:40:27 61° WNW 23:43:40 23° SW
Terra 2.9 23:38:44 26° SW 23:40:42 37° W 23:45:08 10° NNW
Cosmos 1378 4.3 23:42:02 31° E 23:42:02 31° E 23:45:07 10° NNE
ATLAS CENTAUR R/B 0.9 23:38:42 10° NW 23:42:22 71° WSW 23:42:28 70° SW
SME Rocket 3.4 23:41:05 42° SE 23:42:26 61° ENE 23:46:19 10° N
CZ-4C R/B 3.0 23:42:13 70° SSW 23:42:31 76° WSW 23:46:13 10° NNW
deb Kosmos-1763 4.1 23:45:06 67° ESE 23:45:11 67° ESE 23:49:02 10° NNE
Cosmos 2360 Rocket 2.8 23:43:47 10° NNW 23:49:17 48° ENE 23:51:48 29° ESE
USA 32 4.5 23:48:28 39° SE 23:49:47 47° E 23:54:49 10° NNE
Cosmos 1980 Rocket 3.6 23:45:25 10° NW 23:50:04 27° WSW 23:52:22 21° SW
H-2A R/B 4.1 23:47:25 11° SW 23:50:28 18° W 23:53:54 10° NW
Cosmos 1934 Rocket 4.0 23:46:22 10° N 23:52:47 89° WSW 23:55:22 39° S
